Flag for Germany Weather past 2 weeks in Friesoythe, Lower Saxony, Germany

Now
63 °F

Fog.


Feels Like: 63 °F
Forecast: 57 / 75 °F
Wind: 3 mph from East

Location: Meppen-Mil

Current Time: Sep 15, 2014 at 11:50:10 AM

Latest Report: Sep 15, 2014 at 11:20 AM


Visibility: 3 mi

Pressure: 30.09 "Hg

Humidity: 94%

Dew point: 61 °F

Location of FriesoytheLocation

Historic Weather in Friesoythe — Graph

°F

Friesoythe temperature yesterday

Maximum temperature yesterday: 70 °F (at 2:20 PM)
Minimum temperature yesterday: 54 °F (at 4:20 AM)
Average temperature yesterday: 60 °F

Past Weeks' High & Low Weather Summary

 TemperatureHumidityPressure
High77 °F (Sep 5, 3:20 PM)100% (Sep 1, 4:20 AM)30.30 "Hg (Sep 1, 4:20 AM)
Low46 °F (Sep 3, 5:20 AM)46% (Sep 8, 2:20 PM)29.86 "Hg (Sep 6, 5:20 PM)
Average60 °F81%30.10 "Hg
* Reported Aug 31 10:20 AM — Sep 15 10:20 AM, Friesoythe, Weather by CustomWeather, © 2014

Note: Actual official high and low records may vary slightly from our data, if they occured in-between our weather recording intervals... More about our weather records

Advertising

Friesoythe weather history for previous 24 hours

 ConditionsComfort  
Time TempWeatherWind HumidityBarometerVisibility
10:20 AM
Sep 15
59 °FFog.3 mph94%30.09 "Hg3 mi
9:20 AM55 °FFog.2 mph100%30.07 "Hg2 mi
9:02 AM55 °FFog.1 mph94%30.07 "Hg2 mi
8:20 AM50 °FFog.2 mph100%30.07 "Hg0 mi
7:20 AM48 °FFog.1 mph94%30.07 "Hg0 mi
6:20 AM48 °FCool.2 mph94%30.07 "Hg0 mi
5:20 AM48 °FCool.2 mph94%30.07 "Hg0 mi
4:20 AM48 °FCool.2 mph94%30.09 "Hg0 mi
3:20 AM50 °FCool.1 mph94%30.09 "Hg0 mi
2:20 AM50 °FCool.2 mph94%30.09 "Hg0 mi
1:20 AM52 °FCool.3 mph94%30.09 "Hg0 mi
12:20 AM52 °FCool.1 mph94%30.09 "Hg0 mi
11:20 PM
Sep 14
54 °FCool.1 mph94%30.09 "Hg0 mi
10:20 PM57 °FCool.2 mph94%30.09 "Hg0 mi
9:20 PM57 °FCool.2 mph94%30.09 "Hg1 mi
8:20 PM61 °FCool.2 mph88%30.12 "Hg4 mi
7:20 PM61 °FCool.3 mph94%30.09 "Hg4 mi
6:20 PM63 °FMild.3 mph88%30.09 "Hg4 mi
5:20 PM63 °FMild.2 mph83%30.12 "Hg3 mi
4:20 PM64 °FMild.6 mph73%30.12 "Hg6 mi
3:20 PM68 °FMild.7 mph60%30.12 "Hg5 mi
2:20 PM70 °FMild.5 mph57%30.15 "Hg4 mi
1:20 PM66 °FMild.7 mph68%30.15 "Hg5 mi
12:20 PM64 °FMild.7 mph73%30.18 "Hg5 mi
11:20 AM64 °FMild.7 mph73%30.18 "Hg5 mi
Weather by CustomWeather, © 2014

See weather overviewHow to use our weather pages